| time (UTC) | temp F | wind direction | speed knots | gust knots | rain 1hr in | rain 24hr in | rain mn in | humidity % | barometer mb |
| 20260902163102 | 79 | 84 | 0.0 | 0.0 | 0.00 | 0.06 | 0.06 | 69 | 1026.9 |
| 20260902162600 | 78 | 5 | 0.0 | 0.0 | 0.00 | 0.06 | 0.06 | 68 | 1026.9 |
| 20260902162052 | 78 | 107 | 0.0 | 0.0 | 0.00 | 0.06 | 0.06 | 69 | 1026.9 |
| 20260902161550 | 78 | 54 | 0.0 | 0.0 | 0.00 | 0.06 | 0.06 | 70 | 1026.8 |
| 20260902161021 | 79 | 100 | 0.0 | 0.0 | 0.00 | 0.06 | 0.06 | 68 | 1026.8 |
| 20260902160518 | 79 | 100 | 0.0 | 0.0 | 0.00 | 0.06 | 0.06 | 68 | 1026.8 |
| 20260902160012 | 79 | 105 | 0.0 | 0.0 | 0.00 | 0.06 | 0.06 | 69 | 1026.7 |
| 20260902155449 | 79 | 241 | 0.0 | 0.0 | 0.00 | 0.06 | 0.06 | 69 | 1026.7 |
| 20260902154949 | 78 | 76 | 0.0 | 0.0 | 0.00 | 0.06 | 0.06 | 71 | 1026.7 |
| 20260902154453 | 77 | 75 | 0.0 | 0.0 | 0.00 | 0.06 | 0.06 | 72 | 1026.5 |
| 20260902154156 | 76 | 71 | 0.0 | 0.0 | 0.00 | 0.06 | 0.06 | 74 | 1026.5 |
| 20260902153423 | 76 | 81 | 0.0 | 0.0 | 0.00 | 0.06 | 0.06 | 76 | 1026.5 |
| 20260902152910 | 75 | 28 | 0.0 | 0.0 | 0.00 | 0.06 | 0.06 | 77 | 1026.5 |
| 20260902152343 | 75 | 79 | 0.0 | 0.0 | 0.00 | 0.06 | 0.06 | 77 | 1026.6 |
| 20260902152110 | 74 | 29 | 0.0 | 0.0 | 0.00 | 0.06 | 0.06 | 77 | 1026.4 |
| 20260902151338 | 74 | 22 | 0.0 | 0.0 | 0.00 | 0.06 | 0.06 | 78 | 1026.3 |
| 20260902150834 | 74 | 24 | 0.0 | 0.0 | 0.00 | 0.06 | 0.06 | 78 | 1026.3 |
| 20260902150330 | 73 | 80 | 0.0 | 0.0 | 0.00 | 0.06 | 0.06 | 79 | 1026.3 |
| 20260902145807 | 73 | 68 | 0.0 | 0.0 | 0.00 | 0.06 | 0.06 | 79 | 1026.4 |
| 20260902145238 | 73 | 96 | 0.0 | 0.0 | 0.00 | 0.06 | 0.06 | 81 | 1026.4 |
| 20260902144735 | 72 | 68 | 0.0 | 0.0 | 0.00 | 0.06 | 0.06 | 82 | 1026.4 |
| 20260902144502 | 71 | 41 | 0.0 | 0.0 | 0.00 | 0.06 | 0.06 | 82 | 1026.4 |
| 20260902143730 | 71 | 108 | 0.0 | 0.0 | 0.00 | 0.06 | 0.06 | 82 | 1026.4 |
| 20260902143226 | 71 | 74 | 0.0 | 0.0 | 0.00 | 0.06 | 0.06 | 83 | 1026.4 |
| 20260902142716 | 71 | 34 | 0.0 | 0.0 | 0.00 | 0.06 | 0.06 | 83 | 1026.5 |
| 20260902142213 | 71 | 67 | 0.0 | 0.0 | 0.00 | 0.06 | 0.06 | 84 | 1026.6 |
| 20260902141931 | 70 | 78 | 0.0 | 0.0 | 0.00 | 0.06 | 0.06 | 85 | 1026.7 |
| 20260902141132 | 69 | 76 | 0.0 | 0.0 | 0.00 | 0.06 | 0.06 | 86 | 1026.7 |
| 20260902140630 | 69 | 26 | 0.0 | 0.0 | 0.00 | 0.06 | 0.06 | 87 | 1026.8 |
| 20260902140113 | 69 | 99 | 0.0 | 0.0 | 0.00 | 0.06 | 0.06 | 88 | 1026.7 |
| 20260902135617 | 68 | 5 | 0.0 | 0.0 | 0.00 | 0.06 | 0.06 | 87 | 1026.8 |
| 20260902135051 | 68 | 30 | 0.0 | 0.0 | 0.00 | 0.06 | 0.06 | 87 | 1026.8 |
| 20260902134522 | 68 | 59 | 0.0 | 0.0 | 0.00 | 0.06 | 0.06 | 87 | 1026.6 |
| 20260902134021 | 68 | 90 | 0.0 | 0.0 | 0.00 | 0.06 | 0.06 | 88 | 1026.5 |
| 20260902133455 | 68 | 95 | 0.0 | 0.0 | 0.00 | 0.06 | 0.06 | 89 | 1026.5 |
| 20260902132955 | 67 | 56 | 0.0 | 0.0 | 0.00 | 0.06 | 0.06 | 90 | 1026.6 |
| 20260902132454 | 67 | 26 | 0.0 | 0.0 | 0.00 | 0.06 | 0.06 | 90 | 1026.5 |
| 20260902131947 | 67 | 23 | 0.0 | 0.0 | 0.00 | 0.06 | 0.06 | 90 | 1026.6 |
| 20260902131421 | 67 | 23 | 0.0 | 0.0 | 0.00 | 0.06 | 0.06 | 90 | 1026.6 |
| 20260902131123 | 67 | 74 | 0.0 | 0.0 | 0.00 | 0.06 | 0.06 | 90 | 1026.6 |
| 20260902130623 | 66 | 71 | 0.0 | 0.0 | 0.00 | 0.06 | 0.06 | 91 | 1026.6 |
| 20260902125830 | 66 | 71 | 0.0 | 0.0 | 0.00 | 0.06 | 0.06 | 92 | 1026.7 |
| 20260902125331 | 66 | 71 | 0.0 | 0.0 | 0.00 | 0.06 | 0.06 | 92 | 1026.7 |
| 20260902124824 | 66 | 71 | 0.0 | 0.0 | 0.00 | 0.06 | 0.06 | 92 | 1026.5 |
| 20260902124301 | 65 | 64 | 0.0 | 0.0 | 0.00 | 0.06 | 0.06 | 92 | 1026.6 |
| 20260902124008 | 65 | 101 | 0.0 | 0.0 | 0.00 | 0.06 | 0.06 | 92 | 1026.6 |
| 20260902123206 | 65 | 101 | 0.0 | 0.0 | 0.00 | 0.06 | 0.06 | 92 | 1026.5 |
| 20260902122933 | 65 | 100 | 0.0 | 0.0 | 0.00 | 0.06 | 0.06 | 92 | 1026.4 |
| 20260902122153 | 65 | 105 | 0.0 | 0.0 | 0.00 | 0.06 | 0.06 | 93 | 1026.3 |
| 20260902121644 | 65 | 90 | 0.0 | 0.0 | 0.00 | 0.06 | 0.06 | 93 | 1026.2 |
| 20260902121141 | 65 | 101 | 0.0 | 0.0 | 0.00 | 0.06 | 0.06 | 93 | 1026.2 |
| 20260902120634 | 65 | 106 | 0.0 | 0.0 | 0.00 | 0.06 | 0.06 | 93 | 1026.3 |
| 20260902120133 | 65 | 105 | 0.0 | 0.0 | 0.00 | 0.06 | 0.06 | 93 | 1026.3 |
| 20260902115628 | 65 | 115 | 0.0 | 0.0 | 0.00 | 0.06 | 0.06 | 93 | 1026.4 |
| 20260902115401 | 65 | 115 | 0.0 | 0.0 | 0.00 | 0.06 | 0.06 | 93 | 1026.5 |
| 20260902114605 | 66 | 120 | 0.0 | 0.0 | 0.00 | 0.06 | 0.06 | 93 | 1026.4 |
| 20260902114036 | 66 | 111 | 0.0 | 0.0 | 0.00 | 0.06 | 0.06 | 93 | 1026.4 |
| 20260902113535 | 66 | 111 | 0.0 | 0.0 | 0.00 | 0.06 | 0.06 | 93 | 1026.5 |
| 20260902113006 | 66 | 110 | 0.0 | 0.0 | 0.00 | 0.06 | 0.06 | 93 | 1026.4 |
| 20260902112502 | 66 | 96 | 0.0 | 0.0 | 0.00 | 0.06 | 0.06 | 93 | 1026.5 |
| 20260902111952 | 66 | 98 | 0.0 | 0.0 | 0.00 | 0.06 | 0.06 | 93 | 1026.5 |
| 20260902111448 | 66 | 111 | 0.0 | 0.0 | 0.00 | 0.06 | 0.06 | 94 | 1026.8 |
| 20260902110922 | 66 | 218 | 0.0 | 0.0 | 0.00 | 0.06 | 0.06 | 93 | 1027.2 |
| 20260902110420 | 66 | 217 | 0.0 | 0.0 | 0.00 | 0.06 | 0.06 | 93 | 1027.5 |
| 20260902105920 | 66 | 217 | 0.0 | 0.0 | 0.00 | 0.06 | 0.06 | 93 | 1027.6 |
| 20260902105400 | 66 | 217 | 0.0 | 0.0 | 0.00 | 0.06 | 0.06 | 93 | 1027.4 |
| 20260902104856 | 66 | 217 | 0.0 | 0.0 | 0.00 | 0.06 | 0.06 | 93 | 1027.3 |
| 20260902104358 | 66 | 217 | 0.0 | 0.0 | 0.00 | 0.06 | 0.06 | 93 | 1026.9 |
| 20260902103834 | 66 | 217 | 0.0 | 0.0 | 0.00 | 0.06 | 0.06 | 93 | 1026.8 |
| 20260902103310 | 66 | 206 | 0.0 | 0.0 | 0.00 | 0.06 | 0.06 | 92 | 1027.0 |
| 20260902102804 | 66 | 194 | 0.0 | 0.0 | 0.00 | 0.06 | 0.06 | 92 | 1027.3 |
| 20260902102307 | 66 | 227 | 0.0 | 0.0 | 0.00 | 0.06 | 0.06 | 92 | 1027.5 |
| 20260902101755 | 66 | 227 | 0.0 | 0.0 | 0.00 | 0.06 | 0.06 | 92 | 1027.6 |
| 20260902101232 | 66 | 227 | 0.0 | 0.0 | 0.00 | 0.06 | 0.06 | 92 | 1027.5 |
| 20260902101002 | 66 | 227 | 0.0 | 0.0 | 0.00 | 0.06 | 0.06 | 92 | 1027.5 |
| 20260902100229 | 66 | 231 | 0.0 | 0.0 | 0.00 | 0.06 | 0.06 | 91 | 1027.4 |
| 20260902095957 | 66 | 234 | 0.0 | 0.0 | 0.00 | 0.06 | 0.06 | 91 | 1027.2 |
| 20260902095458 | 66 | 223 | 0.0 | 0.9 | 0.00 | 0.06 | 0.06 | 91 | 1027.2 |
| 20260902094930 | 66 | 194 | 0.0 | 1.7 | 0.00 | 0.06 | 0.06 | 91 | 1026.9 |
| 20260902094136 | 66 | 192 | 0.0 | 1.7 | 0.00 | 0.06 | 0.06 | 90 | 1026.5 |
| 20260902093636 | 66 | 211 | 0.0 | 0.9 | 0.00 | 0.06 | 0.06 | 90 | 1026.3 |
| 20260902093129 | 66 | 197 | 0.0 | 0.9 | 0.00 | 0.06 | 0.06 | 90 | 1026.2 |
| 20260902092630 | 66 | 211 | 0.0 | 0.9 | 0.00 | 0.06 | 0.06 | 90 | 1026.1 |
| 20260902092120 | 66 | 175 | 0.0 | 0.0 | 0.00 | 0.06 | 0.06 | 90 | 1026.0 |
| 20260902091848 | 66 | 198 | 0.0 | 0.0 | 0.00 | 0.06 | 0.06 | 90 | 1026.1 |
| 20260902091055 | 66 | 217 | 0.0 | 1.7 | 0.00 | 0.06 | 0.06 | 90 | 1026.1 |
| 20260902090536 | 66 | 169 | 0.0 | 3.5 | 0.00 | 0.06 | 0.06 | 89 | 1026.2 |
| 20260902090312 | 66 | 176 | 0.0 | 3.5 | 0.00 | 0.06 | 0.06 | 89 | 1026.3 |
| 20260902085517 | 66 | 217 | 0.0 | 0.0 | 0.00 | 0.06 | 0.06 | 89 | 1025.9 |
| 20260902085016 | 66 | 217 | 0.0 | 0.0 | 0.00 | 0.06 | 0.06 | 89 | 1025.8 |
| 20260902084512 | 66 | 174 | 0.0 | 0.0 | 0.00 | 0.06 | 0.06 | 88 | 1026.0 |
| 20260902083951 | 66 | 107 | 0.0 | 8.7 | 0.00 | 0.06 | 0.06 | 88 | 1025.3 |
| 20260902083423 | 66 | 61 | 0.0 | 8.7 | 0.00 | 0.06 | 0.06 | 88 | 1024.8 |
| 20260902082857 | 66 | 30 | 0.0 | 0.0 | 0.00 | 0.06 | 0.06 | 88 | 1024.9 |
| 20260902082837 | 66 | 37 | 0.0 | 0.9 | 0.00 | 0.06 | 0.06 | 88 | 1025.2 |
| 20260902081812 | 66 | 27 | 0.0 | 0.9 | 0.00 | 0.06 | 0.06 | 89 | 1025.2 |
| 20260902081304 | 66 | 38 | 0.0 | 0.9 | 0.01 | 0.06 | 0.06 | 89 | 1025.6 |
| 20260902081040 | 66 | 26 | 0.0 | 0.0 | 0.02 | 0.06 | 0.06 | 89 | 1025.6 |
| 20260902080251 | 66 | 26 | 0.0 | 0.0 | 0.03 | 0.06 | 0.06 | 89 | 1025.8 |
| 20260902075751 | 67 | 63 | 0.0 | 0.0 | 0.04 | 0.06 | 0.06 | 89 | 1025.9 |
| 20260902075521 | 67 | 94 | 0.0 | 0.0 | 0.04 | 0.06 | 0.06 | 90 | 1026.0 |
| 20260902074746 | 67 | 84 | 0.0 | 0.9 | 0.04 | 0.06 | 0.06 | 90 | 1026.1 |
| 20260902074246 | 67 | 94 | 0.0 | 0.9 | 0.05 | 0.06 | 0.06 | 90 | 1026.3 |
| 20260902073748 | 67 | 69 | 0.0 | 2.6 | 0.05 | 0.06 | 0.06 | 89 | 1026.6 |
| 20260902073224 | 66 | 101 | 0.0 | 2.6 | 0.06 | 0.06 | 0.06 | 89 | 1026.2 |
| 20260902072704 | 66 | 65 | 0.0 | 3.5 | 0.06 | 0.06 | 0.06 | 88 | 1025.8 |
| 20260902072205 | 67 | 86 | 0.0 | 3.5 | 0.06 | 0.06 | 0.06 | 89 | 1025.8 |
| 20260902071641 | 67 | 94 | 0.0 | 3.5 | 0.06 | 0.06 | 0.06 | 88 | 1026.0 |
| 20260902071127 | 67 | 127 | 0.0 | 3.5 | 0.05 | 0.05 | 0.05 | 87 | 1026.0 |
| 20260902070603 | 67 | 75 | 0.0 | 3.5 | 0.04 | 0.04 | 0.04 | 86 | 1026.3 |
| 20260902070041 | 68 | 90 | 0.0 | 3.5 | 0.03 | 0.03 | 0.03 | 86 | 1026.8 |
| 20260902065513 | 69 | 101 | 0.0 | 3.5 | 0.02 | 0.02 | 0.02 | 86 | 1027.3 |
| 20260902065456 | 69 | 113 | 0.0 | 0.9 | 0.02 | 0.02 | 0.02 | 86 | 1027.7 |
| 20260902064427 | 70 | 135 | 0.0 | 4.3 | 0.01 | 0.01 | 0.01 | 84 | 1028.2 |
| 20260902064147 | 70 | 217 | 0.0 | 4.3 | 0.01 | 0.01 | 0.01 | 84 | 1028.7 |
| 20260902063351 | 70 | 225 | 0.9 | 13.0 | 0.00 | 0.00 | 0.01 | 83 | 1029.1 |
| 20260902063055 | 71 | 192 | 2.6 | 13.0 | 0.00 | 0.00 | 0.00 | 83 | 1029.3 |
| 20260902062300 | 71 | 253 | 2.6 | 13.9 | 0.00 | 0.00 | 0.00 | 83 | 1030.0 |
| 20260902061758 | 72 | 236 | 0.9 | 13.9 | 0.00 | 0.00 | 0.00 | 83 | 1029.7 |
| 20260902061255 | 73 | 224 | 0.0 | 0.9 | 0.00 | 0.00 | 0.00 | 83 | 1028.9 |
| 20260902060734 | 73 | 13 | 0.0 | 0.0 | 0.00 | 0.00 | 0.00 | 82 | 1028.2 |
| 20260902060222 | 73 | 13 | 0.0 | 0.0 | 0.00 | 0.00 | 0.00 | 81 | 1027.7 |
| 20260902055701 | 73 | 40 | 0.0 | 0.0 | 0.00 | 0.00 | 0.00 | 80 | 1027.2 |
| 20260902055201 | 73 | 40 | 0.0 | 0.0 | 0.00 | 0.00 | 0.00 | 79 | 1026.8 |
| 20260902054659 | 73 | 40 | 0.0 | 0.0 | 0.00 | 0.00 | 0.00 | 79 | 1026.3 |
| 20260902054427 | 73 | 32 | 0.0 | 0.0 | 0.00 | 0.00 | 0.00 | 80 | 1025.9 |
| 20260902054144 | 73 | 28 | 0.0 | 0.0 | 0.00 | 0.00 | 0.00 | 81 | 1025.9 |
| 20260902053139 | 73 | 21 | 0.0 | 0.0 | 0.00 | 0.00 | 0.00 | 81 | 1026.3 |
| 20260902052638 | 73 | 22 | 0.0 | 0.0 | 0.00 | 0.00 | 0.00 | 81 | 1026.5 |
| 20260902052116 | 74 | 224 | 0.0 | 0.0 | 0.00 | 0.00 | 0.00 | 79 | 1026.7 |
| 20260902051846 | 74 | 224 | 0.0 | 0.0 | 0.00 | 0.00 | 0.00 | 79 | 1026.8 |
| 20260902051114 | 74 | 224 | 0.0 | 0.0 | 0.00 | 0.00 | 0.00 | 79 | 1027.0 |
| 20260902050615 | 74 | 224 | 0.0 | 0.0 | 0.00 | 0.00 | 0.00 | 78 | 1027.8 |
| 20260902050344 | 74 | 224 | 0.0 | 0.0 | 0.00 | 0.00 | 0.00 | 78 | 1027.9 |
| 20260902045609 | 74 | 224 | 0.0 | 0.0 | 0.00 | 0.00 | 0.00 | 78 | 1028.1 |
| 20260902045106 | 74 | 224 | 0.0 | 0.0 | 0.00 | 0.00 | 0.00 | 78 | 1028.0 |
| 20260902044550 | 74 | 224 | 0.0 | 0.0 | 0.00 | 0.00 | 0.00 | 78 | 1027.4 |
| 20260902044048 | 74 | 224 | 0.0 | 0.0 | 0.00 | 0.00 | 0.00 | 77 | 1026.8 |
| 20260902043543 | 74 | 224 | 0.0 | 0.0 | 0.00 | 0.00 | 0.00 | 78 | 1026.8 |
| 20260902043313 | 74 | 224 | 0.0 | 0.0 | 0.00 | 0.00 | 0.00 | 79 | 1026.7 |
| 20260902042540 | 74 | 224 | 0.0 | 0.0 | 0.00 | 0.00 | 0.00 | 81 | 1026.5 |
| 20260902042038 | 74 | 224 | 0.0 | 0.0 | 0.00 | 0.00 | 0.00 | 81 | 1026.5 |
| 20260902041539 | 74 | 224 | 0.0 | 0.0 | 0.00 | 0.00 | 0.00 | 83 | 1026.6 |
| 20260902041040 | 74 | 224 | 0.0 | 0.0 | 0.00 | 0.00 | 0.00 | 83 | 1026.4 |
| 20260902040516 | 74 | 224 | 0.0 | 0.0 | 0.00 | 0.00 | 0.00 | 82 | 1026.4 |
| 20260902040244 | 74 | 224 | 0.0 | 0.0 | 0.00 | 0.00 | 0.00 | 81 | 1026.5 |
| 20260902035449 | 75 | 224 | 0.0 | 0.0 | 0.00 | 0.00 | 0.00 | 81 | 1026.6 |
| 20260902034924 | 75 | 224 | 0.0 | 0.0 | 0.00 | 0.00 | 0.00 | 82 | 1026.5 |
| 20260902034419 | 75 | 224 | 0.0 | 0.0 | 0.00 | 0.00 | 0.00 | 81 | 1026.4 |
| 20260902033916 | 75 | 224 | 0.0 | 0.0 | 0.00 | 0.00 | 0.00 | 79 | 1026.6 |
| 20260902033402 | 75 | 224 | 0.0 | 0.0 | 0.00 | 0.00 | 0.00 | 76 | 1026.7 |
| 20260902032901 | 75 | 224 | 0.0 | 0.0 | 0.00 | 0.00 | 0.00 | 75 | 1026.9 |
| 20260902032355 | 75 | 224 | 0.0 | 0.0 | 0.00 | 0.00 | 0.00 | 74 | 1027.3 |
| 20260902031854 | 75 | 224 | 0.0 | 0.0 | 0.00 | 0.00 | 0.00 | 75 | 1027.4 |
| 20260902031328 | 76 | 224 | 0.0 | 0.0 | 0.00 | 0.00 | 0.00 | 75 | 1027.4 |
| 20260902030807 | 76 | 224 | 0.0 | 0.0 | 0.00 | 0.00 | 0.00 | 75 | 1027.4 |
| 20260902030542 | 76 | 224 | 0.0 | 0.0 | 0.00 | 0.00 | 0.00 | 75 | 1027.3 |
| 20260902025744 | 76 | 224 | 0.0 | 0.0 | 0.00 | 0.00 | 0.00 | 75 | 1027.3 |
| 20260902025215 | 76 | 224 | 0.0 | 0.0 | 0.00 | 0.00 | 0.00 | 75 | 1027.2 |
| 20260902024714 | 76 | 224 | 0.0 | 0.0 | 0.00 | 0.00 | 0.00 | 75 | 1027.0 |
| 20260902024147 | 76 | 224 | 0.0 | 0.0 | 0.00 | 0.00 | 0.00 | 75 | 1027.0 |
| 20260902023620 | 76 | 224 | 0.0 | 0.0 | 0.00 | 0.00 | 0.00 | 74 | 1027.0 |
| 20260902023109 | 76 | 224 | 0.0 | 0.0 | 0.00 | 0.00 | 0.00 | 74 | 1027.0 |
| 20260902022608 | 76 | 224 | 0.0 | 0.0 | 0.00 | 0.00 | 0.00 | 74 | 1026.9 |
| 20260902022104 | 76 | 224 | 0.0 | 0.0 | 0.00 | 0.00 | 0.00 | 74 | 1026.9 |
| 20260902021832 | 76 | 224 | 0.0 | 0.0 | 0.00 | 0.00 | 0.00 | 74 | 1026.9 |
| 20260902021040 | 77 | 224 | 0.0 | 0.0 | 0.00 | 0.00 | 0.00 | 74 | 1027.0 |
| 20260902020540 | 77 | 224 | 0.0 | 0.0 | 0.00 | 0.00 | 0.00 | 73 | 1027.2 |
| 20260902020041 | 77 | 224 | 0.0 | 0.0 | 0.00 | 0.00 | 0.00 | 73 | 1027.0 |
| 20260902015810 | 77 | 224 | 0.0 | 0.0 | 0.00 | 0.00 | 0.00 | 72 | 1027.0 |
| 20260902015307 | 77 | 224 | 0.0 | 0.0 | 0.00 | 0.00 | 0.00 | 72 | 1027.0 |
| 20260902014534 | 77 | 224 | 0.0 | 0.0 | 0.00 | 0.00 | 0.00 | 73 | 1026.9 |
| 20260902014029 | 77 | 224 | 0.0 | 0.0 | 0.00 | 0.00 | 0.00 | 73 | 1026.8 |
| 20260902013527 | 77 | 224 | 0.0 | 0.0 | 0.00 | 0.00 | 0.00 | 72 | 1026.7 |
| 20260902013000 | 78 | 224 | 0.0 | 0.0 | 0.00 | 0.00 | 0.00 | 72 | 1026.7 |
| 20260902012424 | 78 | 224 | 0.0 | 0.0 | 0.00 | 0.00 | 0.00 | 72 | 1026.8 |
| 20260902011906 | 78 | 224 | 0.0 | 0.0 | 0.00 | 0.00 | 0.00 | 72 | 1026.8 |
| 20260902011407 | 78 | 224 | 0.0 | 0.0 | 0.00 | 0.00 | 0.00 | 71 | 1026.8 |
| 20260902010905 | 78 | 224 | 0.0 | 0.0 | 0.00 | 0.00 | 0.00 | 71 | 1026.7 |
| 20260902010638 | 79 | 224 | 0.0 | 0.0 | 0.00 | 0.00 | 0.00 | 70 | 1026.6 |
| 20260902005847 | 79 | 224 | 0.0 | 0.0 | 0.00 | 0.00 | 0.00 | 69 | 1026.7 |
| 20260902005536 | 79 | 224 | 0.0 | 0.0 | 0.00 | 0.00 | 0.00 | 68 | 1026.6 |
| 20260902004801 | 79 | 224 | 0.0 | 0.0 | 0.00 | 0.00 | 0.00 | 68 | 1026.6 |
| 20260902004259 | 80 | 224 | 0.0 | 0.0 | 0.00 | 0.00 | 0.00 | 68 | 1026.6 |
| 20260902003755 | 80 | 224 | 0.0 | 0.0 | 0.00 | 0.00 | 0.00 | 67 | 1026.7 |
| 20260902003254 | 80 | 224 | 0.0 | 0.0 | 0.00 | 0.00 | 0.00 | 66 | 1026.6 |
| 20260902002733 | 80 | 224 | 0.0 | 0.0 | 0.00 | 0.00 | 0.00 | 66 | 1026.6 |
| 20260902002153 | 81 | 224 | 0.0 | 0.0 | 0.00 | 0.00 | 0.00 | 66 | 1026.7 |
| 20260902001649 | 81 | 224 | 0.0 | 0.0 | 0.00 | 0.00 | 0.00 | 65 | 1026.7 |
| 20260902001146 | 81 | 224 | 0.0 | 0.0 | 0.00 | 0.00 | 0.00 | 65 | 1026.8 |
| 20260902000642 | 81 | 224 | 0.0 | 0.0 | 0.00 | 0.00 | 0.00 | 65 | 1026.9 |
| 20260902000141 | 81 | 224 | 0.0 | 0.0 | 0.00 | 0.00 | 0.00 | 65 | 1026.9 |
| 20260901235621 | 81 | 224 | 0.0 | 0.0 | 0.00 | 0.00 | 0.00 | 64 | 1027.0 |
| 20260901235317 | 81 | 224 | 0.0 | 0.0 | 0.00 | 0.00 | 0.00 | 63 | 1027.0 |
| 20260901234545 | 82 | 224 | 0.0 | 0.0 | 0.00 | 0.00 | 0.00 | 62 | 1027.0 |
| 20260901234522 | 82 | 224 | 0.0 | 0.0 | 0.00 | 0.00 | 0.00 | 62 | 1027.0 |
| 20260901233451 | 82 | 224 | 0.0 | 0.0 | 0.00 | 0.00 | 0.00 | 61 | 1027.0 |
| 20260901233220 | 82 | 224 | 0.0 | 0.0 | 0.00 | 0.00 | 0.00 | 61 | 1027.0 |
| 20260901232423 | 82 | 224 | 0.0 | 0.0 | 0.00 | 0.00 | 0.00 | 61 | 1027.0 |
| 20260901231910 | 82 | 224 | 0.0 | 0.0 | 0.00 | 0.00 | 0.00 | 61 | 1026.9 |
| 20260901231411 | 82 | 224 | 0.0 | 0.0 | 0.00 | 0.00 | 0.00 | 61 | 1027.0 |
| 20260901230847 | 82 | 224 | 0.0 | 0.0 | 0.00 | 0.00 | 0.00 | 60 | 1026.9 |
| 20260901230319 | 83 | 224 | 0.0 | 0.0 | 0.00 | 0.00 | 0.00 | 60 | 1026.9 |
| 20260901230049 | 83 | 224 | 0.0 | 0.0 | 0.00 | 0.00 | 0.00 | 60 | 1026.9 |
| 20260901225250 | 83 | 224 | 0.0 | 0.0 | 0.00 | 0.00 | 0.00 | 61 | 1027.0 |
| 20260901224751 | 83 | 224 | 0.0 | 0.0 | 0.00 | 0.00 | 0.00 | 60 | 1027.0 |
| 20260901224747 | 83 | 224 | 0.0 | 0.0 | 0.00 | 0.00 | 0.00 | 61 | 1027.0 |
| 20260901223741 | 83 | 224 | 0.0 | 0.0 | 0.00 | 0.00 | 0.00 | 59 | 1027.0 |
| 20260901223233 | 83 | 224 | 0.0 | 0.0 | 0.00 | 0.00 | 0.00 | 59 | 1027.0 |
| 20260901222732 | 83 | 224 | 0.0 | 0.0 | 0.00 | 0.00 | 0.00 | 58 | 1027.0 |
| 20260901222227 | 84 | 224 | 0.0 | 0.0 | 0.00 | 0.00 | 0.00 | 58 | 1027.0 |
| 20260901221726 | 84 | 224 | 0.0 | 0.0 | 0.00 | 0.00 | 0.00 | 57 | 1027.0 |
| 20260901221428 | 84 | 224 | 0.0 | 0.0 | 0.00 | 0.00 | 0.00 | 56 | 1026.9 |
| 20260901220655 | 84 | 224 | 0.0 | 0.0 | 0.00 | 0.00 | 0.00 | 57 | 1027.0 |
| 20260901220126 | 84 | 224 | 0.0 | 0.0 | 0.00 | 0.00 | 0.00 | 57 | 1027.0 |
| 20260901215602 | 84 | 224 | 0.0 | 0.0 | 0.00 | 0.00 | 0.00 | 55 | 1026.9 |
| 20260901215033 | 85 | 224 | 0.0 | 0.0 | 0.00 | 0.00 | 0.00 | 56 | 1027.0 |
| 20260901214532 | 85 | 224 | 0.0 | 0.0 | 0.00 | 0.00 | 0.00 | 56 | 1026.9 |
| 20260901214003 | 85 | 224 | 0.0 | 0.0 | 0.00 | 0.00 | 0.00 | 55 | 1026.9 |
| 20260901213502 | 85 | 224 | 0.0 | 0.0 | 0.00 | 0.00 | 0.00 | 55 | 1026.9 |
| 20260901213219 | 85 | 224 | 0.0 | 0.0 | 0.00 | 0.00 | 0.00 | 55 | 1026.9 |
| 20260901212721 | 85 | 224 | 0.0 | 0.0 | 0.00 | 0.00 | 0.00 | 56 | 1026.9 |
| 20260901211926 | 85 | 224 | 0.0 | 0.0 | 0.00 | 0.00 | 0.00 | 55 | 1026.9 |
| 20260901211359 | 85 | 224 | 0.0 | 0.0 | 0.00 | 0.00 | 0.00 | 56 | 1026.9 |
| 20260901210831 | 84 | 224 | 0.0 | 0.0 | 0.00 | 0.00 | 0.00 | 55 | 1027.0 |
| 20260901210329 | 84 | 224 | 0.0 | 0.0 | 0.00 | 0.00 | 0.00 | 55 | 1026.9 |
| 20260901205801 | 84 | 224 | 0.0 | 0.0 | 0.00 | 0.00 | 0.00 | 55 | 1026.9 |
| 20260901205257 | 84 | 224 | 0.0 | 0.0 | 0.00 | 0.00 | 0.00 | 55 | 1026.9 |
| 20260901204748 | 85 | 224 | 0.0 | 0.0 | 0.00 | 0.00 | 0.00 | 57 | 1026.9 |
| 20260901204247 | 85 | 224 | 0.0 | 0.0 | 0.00 | 0.00 | 0.00 | 56 | 1026.9 |
| 20260901203721 | 85 | 224 | 0.0 | 0.0 | 0.00 | 0.00 | 0.00 | 57 | 1026.8 |
| 20260901203153 | 85 | 224 | 0.0 | 0.0 | 0.00 | 0.00 | 0.00 | 52 | 1027.0 |
| 20260901202650 | 85 | 224 | 0.0 | 0.0 | 0.00 | 0.00 | 0.00 | 53 | 1027.3 |
| 20260901202352 | 85 | 224 | 0.0 | 0.0 | 0.00 | 0.00 | 0.00 | 52 | 1027.4 |
| 20260901201613 | 85 | 224 | 0.0 | 0.0 | 0.00 | 0.00 | 0.00 | 52 | 1027.6 |
| 20260901201110 | 85 | 224 | 0.0 | 0.0 | 0.00 | 0.00 | 0.00 | 53 | 1027.5 |
| 20260901200553 | 85 | 224 | 0.0 | 0.0 | 0.00 | 0.00 | 0.00 | 54 | 1027.4 |
| 20260901200548 | 85 | 224 | 0.0 | 0.0 | 0.00 | 0.00 | 0.00 | 53 | 1027.5 |
| 20260901195545 | 85 | 224 | 0.0 | 0.0 | 0.00 | 0.00 | 0.00 | 52 | 1027.3 |
| 20260901195027 | 85 | 224 | 0.0 | 0.0 | 0.00 | 0.00 | 0.00 | 53 | 1027.3 |
| 20260901194531 | 85 | 224 | 0.0 | 0.0 | 0.00 | 0.00 | 0.00 | 54 | 1027.4 |
| 20260901194234 | 85 | 224 | 0.0 | 0.0 | 0.00 | 0.00 | 0.00 | 55 | 1027.5 |
| 20260901193502 | 85 | 224 | 0.0 | 0.0 | 0.00 | 0.00 | 0.00 | 53 | 1027.7 |
| 20260901192944 | 85 | 247 | 0.0 | 0.0 | 0.00 | 0.00 | 0.00 | 53 | 1027.8 |
| 20260901192439 | 86 | 213 | 0.0 | 0.0 | 0.00 | 0.00 | 0.00 | 53 | 1027.6 |
| 20260901191939 | 86 | 215 | 0.0 | 0.0 | 0.00 | 0.00 | 0.00 | 52 | 1027.7 |
| 20260901191415 | 87 | 226 | 0.0 | 0.0 | 0.00 | 0.00 | 0.00 | 49 | 1027.8 |
| 20260901190913 | 88 | 234 | 0.0 | 0.0 | 0.00 | 0.00 | 0.00 | 48 | 1027.7 |
| 20260901190416 | 88 | 234 | 0.0 | 0.0 | 0.00 | 0.00 | 0.00 | 48 | 1027.8 |
| 20260901185852 | 88 | 234 | 0.0 | 0.0 | 0.00 | 0.00 | 0.00 | 47 | 1027.8 |
| 20260901185325 | 89 | 234 | 0.0 | 0.0 | 0.00 | 0.00 | 0.00 | 45 | 1027.8 |
| 20260901184807 | 90 | 234 | 0.0 | 0.0 | 0.00 | 0.00 | 0.00 | 45 | 1027.8 |
| 20260901184801 | 89 | 234 | 0.0 | 0.0 | 0.00 | 0.00 | 0.00 | 45 | 1027.7 |
| 20260901183802 | 90 | 234 | 0.0 | 0.0 | 0.00 | 0.00 | 0.00 | 43 | 1027.7 |
| 20260901183510 | 91 | 234 | 0.0 | 0.0 | 0.00 | 0.00 | 0.00 | 42 | 1027.3 |
| 20260901182739 | 91 | 234 | 0.0 | 0.0 | 0.00 | 0.00 | 0.00 | 45 | 1027.5 |
| 20260901182218 | 90 | 234 | 0.0 | 0.0 | 0.00 | 0.00 | 0.00 | 44 | 1027.5 |
| 20260901181716 | 89 | 234 | 0.0 | 0.0 | 0.00 | 0.00 | 0.00 | 47 | 1027.7 |
| 20260901181210 | 89 | 234 | 0.0 | 0.0 | 0.00 | 0.00 | 0.00 | 45 | 1027.9 |
| 20260901181151 | 89 | 234 | 0.0 | 0.0 | 0.00 | 0.00 | 0.00 | 48 | 1028.0 |
| 20260901180129 | 88 | 234 | 0.0 | 0.0 | 0.00 | 0.00 | 0.00 | 50 | 1028.1 |
| 20260901175603 | 87 | 234 | 0.0 | 0.0 | 0.00 | 0.00 | 0.00 | 49 | 1028.1 |
| 20260901175048 | 88 | 234 | 0.0 | 0.0 | 0.00 | 0.00 | 0.00 | 47 | 1028.3 |
| 20260901175044 | 87 | 234 | 0.0 | 0.0 | 0.00 | 0.00 | 0.00 | 47 | 1028.2 |
| 20260901174043 | 88 | 234 | 0.0 | 0.0 | 0.00 | 0.00 | 0.00 | 46 | 1028.3 |
| 20260901173518 | 88 | 234 | 0.0 | 0.0 | 0.00 | 0.00 | 0.00 | 45 | 1028.2 |
| 20260901172953 | 87 | 234 | 0.0 | 0.0 | 0.00 | 0.00 | 0.00 | 47 | 1028.4 |
| 20260901172430 | 87 | 234 | 0.0 | 0.0 | 0.00 | 0.00 | 0.00 | 48 | 1028.5 |
| 20260901171930 | 87 | 234 | 0.0 | 0.0 | 0.00 | 0.00 | 0.00 | 45 | 1028.5 |
| 20260901171432 | 88 | 234 | 0.0 | 0.0 | 0.00 | 0.00 | 0.00 | 46 | 1028.5 |
| 20260901170922 | 87 | 234 | 0.0 | 0.0 | 0.00 | 0.00 | 0.00 | 45 | 1028.5 |
| 20260901170906 | 87 | 234 | 0.0 | 0.0 | 0.00 | 0.00 | 0.00 | 47 | 1028.5 |
| 20260901170545 | 87 | 234 | 0.0 | 0.0 | 0.00 | 0.00 | 0.00 | 50 | 1028.5 |
| 20260901165249 | 87 | 234 | 0.0 | 0.0 | 0.00 | 0.00 | 0.00 | 49 | 1028.5 |
| 20260901164720 | 86 | 234 | 0.0 | 0.0 | 0.00 | 0.00 | 0.00 | 51 | 1028.5 |
| 20260901164155 | 85 | 233 | 0.0 | 0.0 | 0.00 | 0.00 | 0.00 | 53 | 1028.6 |
| 20260901163920 | 84 | 233 | 0.0 | 0.0 | 0.00 | 0.00 | 0.00 | 53 | 1028.6 |